Weather History for KCMD - November, 2013

Change the Weather History Date:

Wednesday, November 13, 2013

  Actual Average Record
Temperature  
Mean Temperature 36 °F -  
Max Temperature 48 °F - - ()
Min Temperature 23 °F - - ()
Degree Days  
Heating Degree Days 30    
Moisture  
Dew Point 16 °F    
Average Humidity 54    
Maximum Humidity 84    
Minimum Humidity 22    
Precipitation  
Precipitation 0.00 in - - ()
Sea Level Pressure  
Sea Level Pressure 30.54 in    
Wind  
Wind Speed 5 mph (NNE)    
Max Wind Speed 13 mph    
Max Gust Speed 17 mph    
Visibility 10 miles    
Events      
T = Trace of Precipitation, MM = Missing Value Source: NWS Daily Summary

Daily Weather History Graph

Daily Weather History Graph

Search for Another Location

Airport or City:

Trip Planner

Search our weather history database for the weather conditions in past years. The results will help you decide how hot, cold, wet, or windy it might be!

Date:

Astronomy

Nov. 13, 2013 Rise Set
Actual Time 6:18 AM CST 4:44 PM CST
Civil Twilight 5:52 AM CST 5:10 PM CST
Nautical Twilight 5:21 AM CST 5:41 PM CST
Astronomical Twilight 4:52 AM CST 6:10 PM CST
Moon 2:22 PM CST (11/13) 2:21 AM CST (11/13)
Length of Visible Light 11h 18m
Length of Day
10h 25m
Waxing Gibbous, 85% of the Moon is Illuminated
Nov 13
Waxing Gibbous
Nov 17
Full
Nov 25
Last Quarter
Dec 2
New
Dec 9
First Quarter

Hourly Weather History & Observations

Time (CST) Temp. Windchill Dew Point Humidity Pressure Visibility Wind Dir Wind Speed Gust Speed Precip Events Conditions
12:15 AM 29.8 °F 22.2 °F 13.6 °F 51% 30.54 in 10.0 mi North 8.1 mph - N/A   Clear
12:35 AM 29.8 °F 22.2 °F 13.6 °F 51% 30.54 in 10.0 mi North 8.1 mph - N/A   Clear
12:55 AM 29.5 °F 21.8 °F 13.8 °F 52% 30.54 in 10.0 mi North 8.1 mph - N/A   Clear
1:15 AM 28.9 °F 21.1 °F 14.0 °F 54% 30.54 in 10.0 mi North 8.1 mph - N/A   Clear
1:35 AM 28.8 °F 21.7 °F 14.0 °F 54% 30.54 in 10.0 mi North 6.9 mph - N/A   Clear
1:55 AM 28.4 °F 23.3 °F 14.2 °F 55% 30.54 in 10.0 mi North 4.6 mph - N/A   Clear
2:15 AM 28.0 °F 21.7 °F 14.7 °F 57% 30.54 in 10.0 mi North 5.8 mph - N/A   Clear
2:35 AM 27.7 °F 21.3 °F 14.9 °F 59% 30.55 in 10.0 mi North 5.8 mph - N/A   Clear
2:55 AM 27.3 °F 23.4 °F 14.9 °F 60% 30.55 in 10.0 mi North 3.5 mph - N/A   Clear
3:15 AM 26.8 °F 21.4 °F 15.1 °F 61% 30.55 in 10.0 mi North 4.6 mph - N/A   Clear
3:35 AM 26.4 °F 22.4 °F 15.4 °F 63% 30.56 in 10.0 mi NNW 3.5 mph - N/A   Clear
3:55 AM 26.1 °F 21.9 °F 15.8 °F 65% 30.56 in 10.0 mi North 3.5 mph - N/A   Clear
4:15 AM 25.9 °F 20.3 °F 15.6 °F 65% 30.56 in 10.0 mi North 4.6 mph - N/A   Clear
4:35 AM 25.2 °F 20.9 °F 16.0 °F 68% 30.56 in 10.0 mi North 3.5 mph - N/A   Clear
4:55 AM 24.8 °F - 16.2 °F 70% 30.58 in 10.0 mi Calm Calm - N/A   Clear
5:15 AM 24.6 °F - 16.3 °F 71% 30.58 in 10.0 mi Calm Calm - N/A   Clear
5:35 AM 23.5 °F - 16.7 °F 75% 30.59 in 10.0 mi Calm Calm - N/A   Clear
5:55 AM 23.5 °F 17.6 °F 16.7 °F 75% 30.60 in 10.0 mi North 4.6 mph - N/A   Clear
6:15 AM 23.9 °F 16.8 °F 16.7 °F 74% 30.60 in 10.0 mi North 5.8 mph - N/A   Clear
6:35 AM 24.3 °F 17.3 °F 16.7 °F 73% 30.61 in 10.0 mi North 5.8 mph - N/A   Clear
6:55 AM 25.0 °F 20.7 °F 16.7 °F 71% 30.62 in 10.0 mi North 3.5 mph - N/A   Clear
7:35 AM 27.5 °F 22.2 °F 17.6 °F 66% 30.63 in 10.0 mi North 4.6 mph - N/A   Clear
7:55 AM 29.3 °F 22.3 °F 18.3 °F 64% 30.63 in 10.0 mi North 6.9 mph - N/A   Clear
8:15 AM 30.4 °F 21.5 °F 18.1 °F 60% 30.64 in 10.0 mi NNE 10.4 mph - N/A   Clear
8:35 AM 31.6 °F 23.7 °F 18.0 °F 57% 30.64 in 10.0 mi North 9.2 mph - N/A   Clear
8:55 AM 32.4 °F 23.5 °F 17.8 °F 55% 30.64 in 10.0 mi NNE 11.5 mph 16.1 mph N/A   Clear
9:15 AM 33.6 °F 24.6 °F 17.4 °F 52% 30.64 in 10.0 mi NE 12.7 mph 17.3 mph N/A   Clear
9:35 AM 35.1 °F 27.9 °F 16.3 °F 47% 30.64 in 10.0 mi North 9.2 mph - N/A   Clear
9:55 AM 36.5 °F 28.2 °F 14.9 °F 41% 30.64 in 10.0 mi NE 12.7 mph - N/A   Clear
10:15 AM 37.4 °F 30.8 °F 13.5 °F 38% 30.64 in 10.0 mi NE 9.2 mph - N/A   Clear
10:35 AM 38.1 °F 31.7 °F 13.8 °F 37% 30.63 in 10.0 mi NE 9.2 mph - N/A   Clear
10:55 AM 39.4 °F 34.5 °F 14.0 °F 36% 30.62 in 10.0 mi NE 6.9 mph - N/A   Clear
11:15 AM 40.3 °F 37.1 °F 13.5 °F 34% 30.61 in 10.0 mi NE 4.6 mph - N/A   Clear
11:35 AM 41.2 °F 36.0 °F 13.6 °F 33% 30.60 in 10.0 mi NNE 8.1 mph - N/A   Clear
11:55 AM 42.4 °F - 13.6 °F 31% 30.58 in 10.0 mi Calm Calm - N/A   Clear
12:15 PM 43.7 °F 42.1 °F 13.1 °F 29% 30.56 in 10.0 mi North 3.5 mph - N/A   Clear
12:35 PM 44.6 °F 43.1 °F 13.1 °F 28% 30.55 in 10.0 mi North 3.5 mph - N/A   Clear
12:55 PM 45.5 °F 43.2 °F 13.3 °F 27% 30.53 in 10.0 mi NE 4.6 mph - N/A   Clear
1:15 PM 46.2 °F 44.1 °F 12.4 °F 26% 30.53 in 10.0 mi North 4.6 mph - N/A   Clear
1:35 PM 47.1 °F - 12.4 °F 25% 30.52 in 10.0 mi ENE 5.8 mph - N/A   Clear
1:55 PM 47.8 °F - 11.7 °F 23% 30.51 in 10.0 mi North 3.5 mph - N/A   Clear
2:15 PM 47.8 °F - 10.9 °F 23% 30.51 in 10.0 mi East 5.8 mph - N/A   Clear
2:35 PM 48.4 °F - 11.5 °F 23% 30.51 in 10.0 mi NE 5.8 mph - N/A   Clear
2:55 PM 48.2 °F - 10.6 °F 22% 30.50 in 10.0 mi Calm Calm - N/A   Clear
3:15 PM 48.4 °F - 11.3 °F 22% 30.50 in 10.0 mi Calm Calm - N/A   Clear
3:35 PM 48.0 °F - 11.5 °F 23% 30.50 in 10.0 mi NE 3.5 mph - N/A   Clear
3:55 PM 47.7 °F - 10.6 °F 22% 30.49 in 10.0 mi NNE 5.8 mph - N/A   Clear
4:15 PM 46.4 °F 44.3 °F 12.2 °F 25% 30.49 in 10.0 mi North 4.6 mph - N/A   Clear
4:35 PM 44.1 °F 42.5 °F 13.8 °F 29% 30.49 in 10.0 mi North 3.5 mph - N/A   Clear
4:55 PM 42.1 °F - 14.5 °F 33% 30.49 in 10.0 mi Calm Calm - N/A   Clear
5:15 PM 39.9 °F 37.8 °F 15.3 °F 37% 30.49 in 10.0 mi North 3.5 mph - N/A   Clear
5:35 PM 37.2 °F - 17.4 °F 45% 30.50 in 10.0 mi Calm Calm - N/A   Clear
5:55 PM 34.2 °F - 20.1 °F 57% 30.50 in 10.0 mi Calm Calm - N/A   Clear
6:15 PM 33.1 °F - 19.6 °F 58% 30.50 in 10.0 mi Calm Calm - N/A   Clear
6:35 PM 31.5 °F - 20.1 °F 63% 30.50 in 10.0 mi Calm Calm - N/A   Clear
6:55 PM 30.9 °F - 19.6 °F 63% 30.50 in 10.0 mi Calm Calm - N/A   Clear
7:15 PM 30.7 °F - 19.6 °F 63% 30.50 in 10.0 mi Calm Calm - N/A   Clear
7:35 PM 29.7 °F - 20.1 °F 68% 30.50 in 10.0 mi Calm Calm - N/A   Clear
7:55 PM 29.5 °F - 20.8 °F 70% 30.49 in 10.0 mi Calm Calm - N/A   Clear
8:15 PM 28.9 °F - 21.6 °F 74% 30.49 in 10.0 mi Calm Calm - N/A   Clear
8:35 PM 28.0 °F - 21.2 °F 76% 30.49 in 10.0 mi Calm Calm - N/A   Clear
8:55 PM 27.3 °F - 21.0 °F 77% 30.49 in 10.0 mi Calm Calm - N/A   Clear
9:15 PM 27.5 °F - 21.2 °F 77% 30.49 in 10.0 mi Calm Calm - N/A   Clear
9:35 PM 27.3 °F - 21.0 °F 77% 30.49 in 10.0 mi Calm Calm - N/A   Clear
9:55 PM 27.3 °F - 19.8 °F 73% 30.48 in 10.0 mi Calm Calm - N/A   Clear
10:15 PM 26.2 °F - 20.7 °F 79% 30.48 in 10.0 mi Calm Calm - N/A   Clear
10:35 PM 25.7 °F - 21.2 °F 83% 30.47 in 10.0 mi Calm Calm - N/A   Clear
10:55 PM 26.1 °F - 21.6 °F 83% 30.47 in 10.0 mi Calm Calm - N/A   Clear
11:15 PM 25.7 °F - 20.8 °F 82% 30.47 in 10.0 mi Calm Calm - N/A   Clear
11:35 PM 25.5 °F - 21.0 °F 83% 30.46 in 10.0 mi Calm Calm - N/A   Clear
11:55 PM 24.8 °F - 20.7 °F 84% 30.46 in 10.0 mi Calm Calm - N/A   Clear